| time (UTC) | temp C | wind direction | speed KPH | gust KPH | rain 1hr cm | rain 24hr cm | rain mn cm | humidity % | barometer mb |
| 20260508130051 | 24 | 156 | 1.6 | 16.1 | 0.00 | 0.00 | 0.00 | 42 | 1015.0 |
| 20260508124549 | 24 | 196 | 0.0 | 14.5 | 0.00 | 0.00 | 0.00 | 41 | 1015.2 |
| 20260508123103 | 23 | 156 | 1.6 | 11.3 | 0.00 | 0.00 | 0.00 | 40 | 1015.5 |
| 20260508121545 | 23 | 255 | 1.6 | 9.7 | 0.00 | 0.00 | 0.00 | 42 | 1016.1 |
| 20260508120043 | 23 | 136 | 3.2 | 8.0 | 0.00 | 0.00 | 0.00 | 45 | 1016.0 |
| 20260508114547 | 22 | 208 | 0.0 | 11.3 | 0.00 | 0.00 | 0.00 | 45 | 1016.0 |
| 20260508113135 | 22 | 212 | 0.0 | 4.8 | 0.00 | 0.00 | 0.00 | 46 | 1015.7 |
| 20260508111534 | 22 | 287 | 0.0 | 3.2 | 0.00 | 0.00 | 0.00 | 49 | 1016.4 |
| 20260508110031 | 22 | 287 | 1.6 | 4.8 | 0.00 | 0.00 | 0.00 | 49 | 1016.7 |
| 20260508104531 | 22 | 294 | 1.6 | 6.4 | 0.00 | 0.00 | 0.00 | 50 | 1017.0 |
| 20260508103036 | 22 | 242 | 0.0 | 8.0 | 0.00 | 0.00 | 0.00 | 48 | 1017.2 |
| 20260508101529 | 21 | 140 | 0.0 | 11.3 | 0.00 | 0.00 | 0.00 | 49 | 1017.0 |
| 20260508100028 | 21 | 266 | 0.0 | 6.4 | 0.00 | 0.00 | 0.00 | 51 | 1017.3 |
| 20260508094529 | 22 | 221 | 3.2 | 8.0 | 0.00 | 0.00 | 0.00 | 49 | 1017.8 |
| 20260508093033 | 22 | 268 | 1.6 | 11.3 | 0.00 | 0.00 | 0.00 | 48 | 1017.8 |
| 20260508091533 | 21 | 230 | 3.2 | 11.3 | 0.00 | 0.00 | 0.00 | 48 | 1017.9 |
| 20260508090026 | 21 | 258 | 3.2 | 12.9 | 0.00 | 0.00 | 0.00 | 50 | 1018.1 |
| 20260508084521 | 21 | 231 | 3.2 | 9.7 | 0.00 | 0.00 | 0.00 | 49 | 1017.9 |
| 20260508083019 | 21 | 270 | 0.0 | 3.2 | 0.00 | 0.00 | 0.00 | 50 | 1018.1 |
| 20260508081548 | 21 | 238 | 0.0 | 3.2 | 0.00 | 0.00 | 0.00 | 49 | 1018.0 |
| 20260508080018 | 21 | 239 | 0.0 | 4.8 | 0.00 | 0.00 | 0.00 | 48 | 1018.3 |
| 20260508074516 | 20 | 257 | 0.0 | 6.4 | 0.00 | 0.00 | 0.00 | 47 | 1018.3 |
| 20260508073016 | 20 | 234 | 0.0 | 4.8 | 0.00 | 0.00 | 0.00 | 47 | 1018.4 |
| 20260508071516 | 20 | 234 | 0.0 | 8.0 | 0.00 | 0.00 | 0.00 | 46 | 1018.6 |
| 20260508070006 | 20 | 194 | 0.0 | 8.0 | 0.00 | 0.00 | 0.00 | 45 | 1019.0 |
| 20260508064505 | 19 | 241 | 0.0 | 6.4 | 0.00 | 0.00 | 0.00 | 45 | 1018.8 |
| 20260508063113 | 19 | 252 | 0.0 | 11.3 | 0.00 | 0.00 | 0.00 | 45 | 1018.6 |
| 20260508061558 | 19 | 244 | 0.0 | 14.5 | 0.00 | 0.00 | 0.00 | 44 | 1018.4 |
| 20260508060057 | 19 | 246 | 3.2 | 8.0 | 0.00 | 0.00 | 0.00 | 45 | 1017.9 |
| 20260508054552 | 18 | 254 | 1.6 | 6.4 | 0.00 | 0.00 | 0.00 | 50 | 1017.3 |
| 20260508053051 | 18 | 46 | 0.0 | 3.2 | 0.00 | 0.00 | 0.00 | 61 | 1017.0 |
| 20260508051552 | 17 | 46 | 0.0 | 3.2 | 0.00 | 0.00 | 0.00 | 66 | 1016.7 |
| 20260508050048 | 17 | 46 | 0.0 | 0.0 | 0.00 | 0.00 | 0.00 | 68 | 1016.7 |
| 20260508044543 | 17 | 46 | 0.0 | 0.0 | 0.00 | 0.00 | 0.00 | 68 | 1016.8 |
| 20260508043040 | 17 | 46 | 0.0 | 0.0 | 0.00 | 0.00 | 0.00 | 68 | 1016.4 |
| 20260508041538 | 17 | 46 | 0.0 | 1.6 | 0.00 | 0.00 | 0.00 | 68 | 1016.1 |
| 20260508040045 | 17 | 46 | 0.0 | 0.0 | 0.00 | 0.00 | 0.00 | 68 | 1015.9 |
| 20260508034535 | 17 | 46 | 0.0 | 0.0 | 0.00 | 0.00 | 0.00 | 67 | 1015.7 |
| 20260508033034 | 17 | 46 | 0.0 | 0.0 | 0.00 | 0.00 | 0.00 | 68 | 1015.6 |
| 20260508031536 | 17 | 46 | 0.0 | 1.6 | 0.00 | 0.00 | 0.00 | 67 | 1015.7 |
| 20260508030033 | 17 | 46 | 0.0 | 1.6 | 0.00 | 0.00 | 0.00 | 67 | 1015.5 |
| 20260508024545 | 17 | 46 | 0.0 | 1.6 | 0.00 | 0.00 | 0.00 | 69 | 1015.7 |
| 20260508023032 | 17 | 46 | 0.0 | 0.0 | 0.00 | 0.00 | 0.00 | 68 | 1015.9 |
| 20260508021530 | 17 | 46 | 0.0 | 1.6 | 0.00 | 0.00 | 0.00 | 68 | 1015.7 |
| 20260508020029 | 17 | 46 | 0.0 | 1.6 | 0.00 | 0.00 | 0.00 | 68 | 1015.9 |
| 20260508014529 | 17 | 46 | 0.0 | 0.0 | 0.00 | 0.00 | 0.00 | 69 | 1015.9 |
| 20260508013024 | 17 | 46 | 0.0 | 1.6 | 0.00 | 0.00 | 0.00 | 68 | 1016.1 |
| 20260508011523 | 18 | 46 | 0.0 | 0.0 | 0.00 | 0.00 | 0.00 | 67 | 1016.3 |
| 20260508010031 | 18 | 46 | 0.0 | 0.0 | 0.00 | 0.00 | 0.00 | 67 | 1016.4 |
| 20260508004520 | 18 | 46 | 0.0 | 1.6 | 0.00 | 0.00 | 0.00 | 66 | 1016.6 |
| 20260508003019 | 18 | 46 | 0.0 | 0.0 | 0.00 | 0.00 | 0.00 | 65 | 1016.4 |
| 20260508001518 | 18 | 46 | 0.0 | 1.6 | 0.00 | 0.00 | 0.00 | 64 | 1016.6 |
| 20260508000015 | 18 | 46 | 0.0 | 1.6 | 0.00 | 0.00 | 0.00 | 62 | 1016.6 |
| 20260507234518 | 18 | 46 | 0.0 | 1.6 | 0.00 | 0.00 | 0.00 | 62 | 1016.8 |
| 20260507233032 | 18 | 46 | 0.0 | 0.0 | 0.00 | 0.00 | 0.00 | 61 | 1017.2 |
| 20260507231511 | 18 | 46 | 0.0 | 0.0 | 0.00 | 0.00 | 0.00 | 59 | 1017.1 |
| 20260507230009 | 18 | 46 | 0.0 | 0.0 | 0.00 | 0.00 | 0.00 | 58 | 1017.2 |
| 20260507224508 | 18 | 46 | 0.0 | 1.6 | 0.00 | 0.00 | 0.00 | 57 | 1017.4 |
| 20260507223006 | 18 | 47 | 0.0 | 1.6 | 0.00 | 0.00 | 0.00 | 56 | 1017.4 |
| 20260507221510 | 18 | 47 | 0.0 | 0.0 | 0.00 | 0.00 | 0.00 | 55 | 1017.5 |
| 20260507220003 | 18 | 47 | 0.0 | 0.0 | 0.00 | 0.00 | 0.00 | 55 | 1017.6 |
| 20260507214608 | 18 | 47 | 0.0 | 1.6 | 0.00 | 0.00 | 0.00 | 54 | 1017.9 |
| 20260507213201 | 18 | 47 | 0.0 | 1.6 | 0.00 | 0.00 | 0.00 | 54 | 1017.9 |
| 20260507211610 | 18 | 47 | 0.0 | 1.6 | 0.00 | 0.00 | 0.00 | 53 | 1018.0 |
| 20260507204557 | 19 | 47 | 0.0 | 0.0 | 0.00 | 0.00 | 0.00 | 53 | 1017.9 |
| 20260507203106 | 19 | 47 | 0.0 | 1.6 | 0.00 | 0.00 | 0.00 | 52 | 1017.9 |
| 20260507201559 | 19 | 47 | 0.0 | 1.6 | 0.00 | 0.00 | 0.00 | 50 | 1017.9 |
| 20260507200107 | 19 | 47 | 0.0 | 1.6 | 0.00 | 0.00 | 0.00 | 50 | 1017.8 |
| 20260507194552 | 19 | 47 | 0.0 | 1.6 | 0.00 | 0.00 | 0.00 | 49 | 1017.8 |
| 20260507193051 | 19 | 47 | 0.0 | 1.6 | 0.00 | 0.00 | 0.00 | 49 | 1017.7 |
| 20260507191550 | 19 | 47 | 0.0 | 1.6 | 0.00 | 0.00 | 0.00 | 48 | 1017.6 |
| 20260507190057 | 20 | 45 | 0.0 | 1.6 | 0.00 | 0.00 | 0.00 | 49 | 1017.7 |
| 20260507184556 | 20 | 45 | 0.0 | 1.6 | 0.00 | 0.00 | 0.00 | 50 | 1017.7 |
| 20260507183050 | 20 | 45 | 0.0 | 1.6 | 0.00 | 0.00 | 0.00 | 50 | 1017.5 |
| 20260507181547 | 20 | 45 | 0.0 | 1.6 | 0.00 | 0.00 | 0.00 | 50 | 1017.5 |
| 20260507180050 | 20 | 45 | 0.0 | 3.2 | 0.00 | 0.00 | 0.00 | 50 | 1017.5 |
| 20260507174549 | 20 | 45 | 0.0 | 1.6 | 0.00 | 0.00 | 0.00 | 51 | 1017.3 |
| 20260507173045 | 21 | 46 | 0.0 | 1.6 | 0.00 | 0.00 | 0.00 | 49 | 1017.4 |
| 20260507171544 | 21 | 46 | 0.0 | 6.4 | 0.00 | 0.00 | 0.00 | 47 | 1017.4 |
| 20260507170044 | 22 | 58 | 0.0 | 8.0 | 0.00 | 0.00 | 0.00 | 45 | 1017.0 |
| 20260507164556 | 22 | 75 | 0.0 | 8.0 | 0.00 | 0.00 | 0.00 | 39 | 1016.6 |
| 20260507163043 | 23 | 236 | 0.0 | 3.2 | 0.00 | 0.00 | 0.00 | 31 | 1016.7 |
| 20260507161543 | 23 | 236 | 0.0 | 4.8 | 0.00 | 0.00 | 0.00 | 31 | 1016.8 |
| 20260507160043 | 23 | 235 | 1.6 | 8.0 | 0.00 | 0.00 | 0.00 | 31 | 1016.8 |
| 20260507154550 | 24 | 204 | 0.0 | 8.0 | 0.00 | 0.00 | 0.00 | 30 | 1016.9 |
| 20260507153041 | 24 | 242 | 1.6 | 12.9 | 0.00 | 0.00 | 0.00 | 29 | 1017.2 |
| 20260507151541 | 25 | 146 | 0.0 | 9.7 | 0.00 | 0.00 | 0.00 | 29 | 1017.3 |
| 20260507150040 | 25 | 111 | 1.6 | 16.1 | 0.00 | 0.00 | 0.00 | 30 | 1017.2 |
| 20260507144539 | 25 | 235 | 1.6 | 11.3 | 0.00 | 0.00 | 0.00 | 30 | 1017.2 |
| 20260507143038 | 25 | 237 | 1.6 | 12.9 | 0.00 | 0.00 | 0.00 | 28 | 1017.1 |
| 20260507141542 | 25 | 248 | 3.2 | 14.5 | 0.00 | 0.00 | 0.00 | 29 | 1017.1 |
| 20260507140037 | 26 | 287 | 4.8 | 16.1 | 0.00 | 0.00 | 0.00 | 27 | 1016.7 |
| 20260507134539 | 26 | 292 | 3.2 | 12.9 | 0.00 | 0.00 | 0.00 | 26 | 1016.7 |
| 20260507133050 | 26 | 231 | 1.6 | 12.9 | 0.00 | 0.00 | 0.00 | 27 | 1016.5 |
| 20260507131545 | 26 | 256 | 1.6 | 11.3 | 0.00 | 0.00 | 0.00 | 30 | 1016.6 |